TimeEST,TemperatureF,Dew PointF,Humidity,Sea Level PressureIn,VisibilityMPH,Wind Direction,Wind SpeedMPH,Gust SpeedMPH,PrecipitationIn,Events,Conditions,WindDirDegrees,DateUTC
12:53 AM,68.0,64.0,87,30.18,10.0,SSE,4.6,-,N/A,,Overcast,150,2013-01-15 05:53:00
1:53 AM,66.0,63.0,90,30.17,10.0,SE,4.6,-,N/A,,Mostly Cloudy,140,2013-01-15 06:53:00
2:53 AM,64.9,62.1,90,30.16,10.0,SE,4.6,-,N/A,,Mostly Cloudy,130,2013-01-15 07:53:00
4:53 AM,64.9,63.0,93,30.15,10.0,Calm,Calm,-,N/A,,Clear,0,2013-01-15 09:53:00
5:31 AM,62.6,62.6,100,30.14,1.8,Calm,Calm,-,N/A,,Partly Cloudy,0,2013-01-15 10:31:00
5:42 AM,62.6,62.6,100,30.14,3.0,Calm,Calm,-,N/A,,Mostly Cloudy,0,2013-01-15 10:42:00
5:53 AM,64.0,62.1,93,30.15,10.0,Calm,Calm,-,N/A,,Mostly Cloudy,0,2013-01-15 10:53:00
7:53 AM,64.9,63.0,93,30.17,10.0,Calm,Calm,-,N/A,,Mostly Cloudy,0,2013-01-15 12:53:00
8:53 AM,68.0,64.9,90,30.18,10.0,Calm,Calm,-,N/A,,Clear,0,2013-01-15 13:53:00
9:53 AM,73.9,64.9,73,30.18,10.0,SE,5.8,-,N/A,,Clear,140,2013-01-15 14:53:00
10:53 AM,75.0,64.0,69,30.17,10.0,SE,6.9,-,N/A,,Mostly Cloudy,140,2013-01-15 15:53:00
11:53 AM,77.0,61.0,58,30.14,10.0,South,4.6,-,N/A,,Overcast,190,2013-01-15 16:53:00
12:53 PM,78.1,61.0,56,30.12,10.0,South,4.6,-,N/A,,Mostly Cloudy,170,2013-01-15 17:53:00
1:53 PM,80.1,62.1,54,30.09,10.0,East,4.6,-,N/A,,Overcast,80,2013-01-15 18:53:00
2:53 PM,79.0,60.1,52,30.09,10.0,ESE,5.8,-,N/A,,Partly Cloudy,120,2013-01-15 19:53:00
3:53 PM,79.0,61.0,54,30.09,10.0,ESE,5.8,-,N/A,,Mostly Cloudy,120,2013-01-15 20:53:00
4:53 PM,78.1,64.0,62,30.10,10.0,ESE,11.5,-,N/A,,Mostly Cloudy,120,2013-01-15 21:53:00
5:53 PM,73.9,63.0,68,30.10,10.0,ESE,11.5,-,N/A,,Clear,120,2013-01-15 22:53:00
6:53 PM,72.0,64.0,76,30.11,10.0,ESE,10.4,-,N/A,,Clear,120,2013-01-15 23:53:00
7:53 PM,70.0,64.0,81,30.11,10.0,SE,8.1,-,N/A,,Clear,130,2013-01-16 00:53:00
8:53 PM,69.1,64.0,84,30.10,10.0,SE,8.1,-,N/A,,Clear,130,2013-01-16 01:53:00
9:53 PM,69.1,63.0,81,30.10,10.0,SSE,3.5,-,N/A,,Mostly Cloudy,150,2013-01-16 02:53:00
10:53 PM,66.9,62.1,84,30.10,10.0,SE,4.6,-,N/A,,Partly Cloudy,140,2013-01-16 03:53:00
11:53 PM,66.0,62.1,87,30.10,10.0,SSE,4.6,-,N/A,,Clear,150,2013-01-16 04:53:00